QPF
0.08 0.08 0.09 0.08 0.09 0.09 0.10 0.11 0.09 0.06 0.04 0.03 0.04 0.05 0.06 0.08 0.04 0.04 0.05 0.04 0.03 0.03 0.04 0.05 0.06 0.05 0.05 0.04 0.04 0.04 0.06 0.07 0.09 0.11 0.11 0.10 0.10 0.11
0.08 0.08 0.09 0.08 0.08 0.06 0.07 0.08 0.08 0.07 0.05 0.05 0.05 0.04 0.05 0.05 0.04 0.05 0.05 0.05 0.03 0.04 0.04 0.04 0.05 0.05 0.05 0.05 0.05 0.04 0.05 0.05 0.06 0.08 0.09 0.10 0.10 0.10
0.05 0.06 0.06 0.08 0.09 0.06 0.05 0.05 0.05 0.05 0.07 0.07 0.07 0.05 0.05 0.06 0.05 0.05 0.04 0.04 0.04 0.04 0.03 0.03 0.03 0.04 0.04 0.05 0.06 0.06 0.06 0.05 0.04 0.04 0.05 0.06 0.07 0.07
0.03 0.04 0.05 0.06 0.07 0.07 0.07 0.05 0.04 0.05 0.07 0.08 0.07 0.06 0.04 0.05 0.06 0.06 0.04 0.03 0.03 0.03 0.03 0.03 0.03 0.04 0.04 0.05 0.06 0.06 0.07 0.07 0.05 0.04 0.04 0.03 0.03 0.04
0.03 0.04 0.05 0.05 0.05 0.05 0.06 0.05 0.04 0.05 0.07 0.08 0.08 0.07 0.06 0.05 0.06 0.05 0.05 0.05 0.04 0.03 0.03 0.03 0.03 0.03 0.03 0.04 0.04 0.05 0.05 0.06 0.06 0.05 0.04 0.03 0.03 0.03
0.04 0.05 0.05 0.06 0.06 0.06 0.05 0.04 0.04 0.06 0.06 0.08 0.08 0.08 0.06 0.06 0.06 0.06 0.05 0.05 0.04 0.03 0.03 0.04 0.04 0.04 0.03 0.02 0.02 0.03 0.04 0.05 0.05 0.05 0.04 0.04 0.03 0.02
0.05 0.05 0.05 0.04 0.03 0.04 0.03 0.04 0.04 0.06 0.06 0.07 0.09 0.08 0.06 0.07 0.06 0.06 0.06 0.05 0.04 0.04 0.03 0.03 0.04 0.04 0.04 0.03 0.03 0.03 0.03 0.04 0.04 0.04 0.05 0.05 0.04 0.03
0.06 0.06 0.04 0.02 0.02 0.02 0.02 0.03 0.04 0.06 0.06 0.07 0.09 0.08 0.07 0.08 0.08 0.08 0.08 0.06 0.06 0.05 0.05 0.05 0.05 0.05 0.04 0.03 0.02 0.02 0.02 0.02 0.03 0.04 0.04 0.06 0.06 0.04
0.06 0.06 0.04 0.03 0.03 0.03 0.03 0.04 0.04 0.04 0.05 0.07 0.08 0.08 0.08 0.08 0.10 0.10 0.10 0.09 0.07 0.06 0.06 0.06 0.06 0.05 0.04 0.02 0.02 0.01 0.01 0.01 0.02 0.03 0.03 0.04 0.04 0.05
0.05 0.05 0.06 0.05 0.04 0.04 0.05 0.05 0.06 0.06 0.06 0.07 0.08 0.08 0.08 0.09 0.11 0.11 0.11 0.09 0.07 0.05 0.06 0.07 0.07 0.05 0.04 0.04 0.03 0.02 0.01 0.01 0.01 0.01 0.02 0.02 0.02 0.03
0.03 0.03 0.04 0.04 0.04 0.04 0.04 0.05 0.05 0.06 0.06 0.07 0.08 0.07 0.08 0.08 0.08 0.09 0.10 0.09 0.07 0.05 0.05 0.06 0.05 0.06 0.04 0.05 0.03 0.02 0.02 0.01 0.01 0.00 0.00 0.01 0.01 0.02
0.03 0.03 0.04 0.04 0.04 0.04 0.05 0.05 0.06 0.06 0.07 0.07 0.09 0.09 0.07 0.06 0.07 0.07 0.08 0.09 0.07 0.05 0.04 0.05 0.03 0.05 0.05 0.04 0.04 0.02 0.02 0.02 0.01 0.01 0.01 0.01 0.01 0.01
0.03 0.03 0.05 0.06 0.03 0.03 0.05 0.05 0.06 0.06 0.06 0.06 0.06 0.06 0.06 0.07 0.07 0.06 0.07 0.07 0.06 0.05 0.04 0.05 0.04 0.05 0.05 0.04 0.04 0.04 0.03 0.02 0.02 0.02 0.01 0.01 0.01 0.01
0.03 0.03 0.03 0.03 0.02 0.02 0.02 0.02 0.02 0.02 0.03 0.03 0.04 0.05 0.05 0.05 0.06 0.07 0.07 0.06 0.05 0.04 0.05 0.06 0.06 0.06 0.06 0.05 0.04 0.04 0.04 0.04 0.03 0.03 0.04 0.05 0.04 0.03
0.02 0.02 0.01 0.01 0.01 0.01 0.01 0.01 0.02 0.03 0.04 0.04 0.04 0.04 0.05 0.05 0.06 0.07 0.07 0.07 0.06 0.03 0.03 0.04 0.05 0.06 0.06 0.06 0.05 0.04 0.04 0.04 0.04 0.04 0.05 0.06 0.06 0.06
0.01 0.01 0.01 0.01 0.01 0.01 0.01 0.02 0.02 0.03 0.03 0.04 0.04 0.03 0.03 0.03 0.04 0.06 0.06 0.07 0.07 0.05 0.04 0.04 0.04 0.05 0.05 0.05 0.07 0.06 0.05 0.04 0.05 0.06 0.07 0.07 0.06 0.06
0.01 0.02 0.02 0.02 0.02 0.02 0.02 0.02 0.03 0.03 0.03 0.03 0.03 0.04 0.03 0.03 0.04 0.05 0.05 0.05 0.06 0.07 0.07 0.05 0.05 0.06 0.06 0.06 0.07 0.07 0.07 0.06 0.05 0.06 0.07 0.07 0.05 0.04
0.01 0.03 0.03 0.03 0.03 0.03 0.03 0.03 0.03 0.03 0.04 0.04 0.05 0.05 0.04 0.04 0.04 0.05 0.04 0.05 0.06 0.07 0.07 0.06 0.06 0.07 0.07 0.05 0.06 0.08 0.08 0.06 0.06 0.05 0.06 0.05 0.04 0.03
0.01 0.02 0.02 0.02 0.02 0.03 0.03 0.03 0.04 0.04 0.04 0.05 0.06 0.06 0.05 0.06 0.06 0.06 0.07 0.07 0.07 0.06 0.06 0.06 0.06 0.07 0.07 0.05 0.04 0.05 0.07 0.06 0.06 0.05 0.04 0.04 0.04 0.04
0.02 0.02 0.02 0.02 0.03 0.02 0.02 0.03 0.04 0.04 0.05 0.05 0.06 0.07 0.07 0.08 0.09 0.09 0.10 0.09 0.08 0.07 0.06 0.06 0.05 0.06 0.07 0.07 0.05 0.03 0.03 0.05 0.05 0.05 0.04 0.04 0.04 0.03
0.02 0.02 0.02 0.03 0.03 0.03 0.03 0.03 0.04 0.04 0.04 0.05 0.07 0.09 0.11 0.12 0.11 0.09 0.08 0.07 0.06 0.06 0.06 0.06 0.06 0.05 0.05 0.06 0.05 0.03 0.03 0.03 0.02 0.04 0.05 0.05 0.06 0.05
0.01 0.02 0.02 0.02 0.03 0.03 0.03 0.03 0.03 0.04 0.04 0.05 0.06 0.06 0.06 0.07 0.07 0.08 0.08 0.07 0.07 0.07 0.07 0.06 0.06 0.04 0.05 0.06 0.06 0.04 0.04 0.04 0.03 0.03 0.04 0.05 0.06 0.06
0.01 0.01 0.01 0.01 0.02 0.02 0.02 0.02 0.03 0.04 0.05 0.05 0.05 0.06 0.07 0.06 0.06 0.06 0.06 0.06 0.06 0.05 0.04 0.05 0.06 0.07 0.07 0.07 0.06 0.05 0.06 0.05 0.05 0.05 0.04 0.03 0.04 0.05
MSLP
1010.75 1010.53 1010.32 1010.12 1009.90 1009.63 1009.29 1008.89 1008.42 1007.89 1007.32 1006.73 1006.13 1005.55 1005.00 1004.49 1004.06 1003.72 1003.49 1003.37 1003.38 1003.51 1003.73 1004.01 1004.31 1004.58 1004.80 1004.93 1004.97 1004.95 1004.89 1004.84 1004.83 1004.90 1005.07 1005.35 1005.72 1006.17
1009.90 1009.59 1009.31 1009.05 1008.80 1008.54 1008.25 1007.92 1007.55 1007.13 1006.66 1006.14 1005.60 1005.04 1004.47 1003.93 1003.43 1003.01 1002.68 1002.48 1002.42 1002.49 1002.67 1002.93 1003.23 1003.53 1003.78 1003.97 1004.07 1004.11 1004.11 1004.10 1004.12 1004.21 1004.37 1004.62 1004.94 1005.33
1009.10 1008.70 1008.34 1008.02 1007.73 1007.47 1007.22 1006.95 1006.67 1006.34 1005.97 1005.55 1005.07 1004.53 1003.97 1003.39 1002.82 1002.31 1001.89 1001.58 1001.41 1001.39 1001.49 1001.70 1001.98 1002.28 1002.57 1002.81 1003.00 1003.12 1003.21 1003.28 1003.36 1003.49 1003.67 1003.91 1004.21 1004.56
1008.39 1007.91 1007.48 1007.09 1006.76 1006.49 1006.25 1006.03 1005.81 1005.57 1005.28 1004.93 1004.51 1004.01 1003.45 1002.85 1002.23 1001.64 1001.11 1000.69 1000.41 1000.27 1000.29 1000.42 1000.66 1000.95 1001.26 1001.56 1001.83 1002.05 1002.24 1002.40 1002.56 1002.74 1002.95 1003.21 1003.49 1003.82
1007.77 1007.23 1006.72 1006.28 1005.90 1005.60 1005.36 1005.16 1004.98 1004.79 1004.56 1004.27 1003.90 1003.44 1002.89 1002.28 1001.63 1000.98 1000.38 999.87 999.48 999.24 999.16 999.22 999.40 999.67 1000.00 1000.34 1000.68 1000.99 1001.27 1001.53 1001.77 1002.01 1002.25 1002.52 1002.80 1003.10
1007.20 1006.60 1006.05 1005.55 1005.14 1004.81 1004.55 1004.34 1004.17 1004.00 1003.80 1003.54 1003.21 1002.78 1002.26 1001.67 1001.01 1000.35 999.70 999.13 998.67 998.35 998.19 998.18 998.32 998.56 998.89 999.27 999.66 1000.04 1000.40 1000.73 1001.04 1001.32 1001.60 1001.87 1002.14 1002.43
1006.61 1005.98 1005.39 1004.87 1004.42 1004.06 1003.77 1003.54 1003.36 1003.18 1002.98 1002.75 1002.44 1002.05 1001.56 1001.00 1000.38 999.72 999.08 998.50 998.01 997.65 997.44 997.38 997.47 997.70 998.02 998.42 998.85 999.28 999.70 1000.08 1000.44 1000.75 1001.04 1001.31 1001.57 1001.84
1005.95 1005.32 1004.73 1004.19 1003.73 1003.34 1003.02 1002.76 1002.54 1002.34 1002.13 1001.89 1001.60 1001.24 1000.80 1000.29 999.72 999.12 998.52 997.96 997.49 997.12 996.90 996.82 996.89 997.10 997.42 997.83 998.28 998.74 999.20 999.62 1000.00 1000.33 1000.63 1000.89 1001.13 1001.37
1005.21 1004.60 1004.03 1003.50 1003.04 1002.64 1002.30 1002.01 1001.75 1001.51 1001.28 1001.02 1000.73 1000.39 1000.00 999.55 999.06 998.54 998.01 997.52 997.09 996.75 996.54 996.46 996.53 996.73 997.05 997.46 997.92 998.41 998.89 999.33 999.73 1000.07 1000.36 1000.61 1000.84 1001.06
1004.43 1003.86 1003.32 1002.83 1002.39 1001.99 1001.64 1001.32 1001.02 1000.74 1000.46 1000.18 999.88 999.56 999.21 998.82 998.41 997.97 997.54 997.12 996.76 996.48 996.30 996.24 996.31 996.51 996.83 997.24 997.71 998.21 998.71 999.18 999.59 999.95 1000.25 1000.49 1000.70 1000.91
1003.67 1003.15 1002.66 1002.22 1001.81 1001.43 1001.06 1000.72 1000.38 1000.05 999.73 999.42 999.10 998.79 998.46 998.13 997.79 997.44 997.09 996.76 996.47 996.24 996.10 996.06 996.14 996.35 996.66 997.08 997.56 998.08 998.59 999.09 999.53 999.91 1000.22 1000.48 1000.69 1000.89
1003.02 1002.54 1002.11 1001.70 1001.32 1000.96 1000.59 1000.22 999.85 999.48 999.11 998.76 998.42 998.09 997.79 997.49 997.21 996.93 996.65 996.40 996.17 996.00 995.89 995.88 995.97 996.18 996.49 996.90 997.39 997.92 998.46 998.99 999.46 999.88 1000.23 1000.52 1000.75 1000.96
1002.50 1002.06 1001.66 1001.29 1000.94 1000.58 1000.21 999.82 999.41 999.00 998.59 998.19 997.82 997.49 997.19 996.92 996.67 996.45 996.24 996.04 995.87 995.74 995.67 995.67 995.77 995.97 996.28 996.68 997.17 997.71 998.27 998.83 999.35 999.81 1000.21 1000.54 1000.82 1001.05
1002.11 1001.69 1001.31 1000.96 1000.61 1000.25 999.86 999.45 999.02 998.57 998.12 997.69 997.30 996.95 996.65 996.39 996.18 996.00 995.84 995.70 995.58 995.48 995.44 995.46 995.55 995.74 996.04 996.43 996.90 997.44 998.02 998.60 999.16 999.67 1000.12 1000.51 1000.83 1001.11
1001.81 1001.38 1001.00 1000.64 1000.28 999.91 999.51 999.08 998.62 998.14 997.67 997.21 996.80 996.45 996.15 995.92 995.73 995.59 995.47 995.38 995.30 995.25 995.23 995.26 995.36 995.54 995.81 996.18 996.63 997.16 997.73 998.32 998.90 999.44 999.94 1000.38 1000.75 1001.08
1001.50 1001.05 1000.65 1000.27 999.89 999.50 999.09 998.64 998.17 997.69 997.20 996.74 996.33 995.97 995.69 995.47 995.32 995.21 995.15 995.10 995.08 995.07 995.08 995.13 995.23 995.40 995.65 995.99 996.41 996.90 997.44 998.02 998.60 999.16 999.68 1000.16 1000.58 1000.95
1001.13 1000.65 1000.22 999.81 999.42 999.02 998.60 998.16 997.69 997.21 996.73 996.28 995.87 995.53 995.26 995.07 994.95 994.88 994.87 994.88 994.91 994.95 995.00 995.08 995.20 995.36 995.59 995.89 996.27 996.72 997.22 997.75 998.30 998.85 999.38 999.87 1000.32 1000.73
1000.67 1000.17 999.72 999.30 998.90 998.51 998.10 997.67 997.22 996.76 996.30 995.87 995.48 995.15 994.90 994.73 994.64 994.61 994.63 994.70 994.78 994.88 994.98 995.11 995.25 995.42 995.64 995.91 996.24 996.63 997.07 997.55 998.05 998.56 999.06 999.54 1000.00 1000.43
1000.17 999.68 999.22 998.81 998.43 998.06 997.68 997.29 996.88 996.45 996.02 995.61 995.23 994.91 994.66 994.49 994.40 994.39 994.44 994.54 994.68 994.83 994.99 995.16 995.34 995.53 995.75 996.00 996.30 996.64 997.02 997.43 997.87 998.32 998.77 999.23 999.67 1000.10
999.74 999.26 998.84 998.46 998.12 997.80 997.47 997.13 996.76 996.37 995.97 995.57 995.18 994.85 994.58 994.38 994.27 994.24 994.29 994.40 994.56 994.75 994.96 995.18 995.40 995.63 995.87 996.12 996.40 996.70 997.02 997.37 997.74 998.13 998.54 998.94 999.36 999.77
999.48 999.05 998.69 998.37 998.10 997.84 997.57 997.29 996.97 996.61 996.22 995.80 995.40 995.01 994.68 994.42 994.25 994.16 994.17 994.26 994.42 994.63 994.87 995.13 995.40 995.67 995.94 996.21 996.49 996.77 997.06 997.36 997.68 998.01 998.36 998.72 999.09 999.48
999.49 999.14 998.85 998.61 998.41 998.23 998.03 997.80 997.51 997.17 996.77 996.33 995.86 995.40 994.97 994.61 994.33 994.15 994.08 994.11 994.23 994.43 994.69 994.98 995.29 995.61 995.92 996.22 996.52 996.80 997.08 997.36 997.64 997.93 998.23 998.55 998.88 999.23
999.83 999.56 999.35 999.19 999.07 998.95 998.81 998.62 998.35 998.01 997.58 997.07 996.53 995.96 995.41 994.91 994.50 994.20 994.02 993.96 994.02 994.18 994.43 994.74 995.08 995.44 995.80 996.15 996.48 996.78 997.07 997.35 997.61 997.88 998.15 998.43 998.73 999.04
Thickness
5627 5626 5624 5623 5623 5623 5621 5618 5614 5612 5615 5619 5621 5625 5626 5626 5626 5626 5626 5626 5627 5627 5627 5628 5629 5630 5631 5633 5635 5638 5640 5643 5645 5646 5648 5650 5652 5654
5623 5622 5620 5620 5619 5618 5617 5616 5615 5611 5610 5614 5616 5620 5621 5622 5622 5622 5622 5622 5622 5623 5623 5624 5624 5625 5626 5627 5629 5632 5634 5636 5639 5641 5643 5645 5647 5649
5620 5619 5617 5616 5615 5614 5613 5612 5611 5610 5607 5611 5613 5616 5616 5617 5618 5618 5618 5619 5619 5619 5620 5620 5621 5621 5621 5622 5624 5626 5628 5631 5633 5635 5638 5640 5641 5643
5617 5616 5614 5613 5611 5610 5609 5609 5608 5608 5606 5606 5609 5611 5612 5613 5614 5614 5615 5616 5617 5617 5617 5617 5617 5617 5617 5618 5619 5621 5623 5625 5627 5629 5632 5634 5635 5636
5616 5614 5612 5610 5608 5607 5606 5606 5605 5606 5604 5603 5604 5607 5608 5609 5609 5609 5611 5612 5613 5614 5614 5614 5614 5614 5613 5614 5615 5616 5618 5619 5621 5624 5626 5628 5630 5631
5615 5613 5611 5609 5607 5606 5605 5604 5603 5602 5601 5600 5600 5602 5603 5605 5604 5604 5605 5606 5608 5610 5610 5611 5610 5610 5610 5610 5611 5612 5613 5614 5616 5618 5620 5622 5624 5625
5613 5612 5611 5609 5607 5605 5604 5601 5600 5598 5597 5596 5596 5596 5597 5597 5598 5600 5601 5602 5603 5606 5605 5607 5607 5606 5606 5607 5607 5609 5610 5611 5612 5613 5614 5616 5617 5619
5611 5610 5610 5608 5607 5605 5602 5600 5598 5596 5594 5593 5592 5592 5593 5594 5595 5596 5597 5597 5597 5601 5601 5602 5604 5604 5605 5606 5607 5608 5608 5608 5608 5608 5609 5610 5611 5612
5610 5609 5608 5608 5605 5603 5601 5600 5598 5596 5594 5591 5590 5590 5591 5593 5592 5592 5593 5593 5594 5597 5597 5597 5600 5601 5604 5606 5607 5606 5605 5604 5604 5604 5605 5605 5605 5606
5609 5608 5606 5604 5602 5599 5598 5597 5596 5595 5594 5592 5590 5591 5591 5591 5591 5591 5591 5591 5593 5594 5595 5593 5596 5598 5602 5603 5604 5604 5603 5602 5601 5601 5601 5601 5601 5601
5609 5607 5605 5602 5598 5596 5594 5593 5593 5593 5593 5592 5590 5590 5589 5588 5588 5586 5587 5586 5587 5590 5592 5591 5593 5595 5597 5598 5599 5600 5600 5599 5598 5598 5597 5597 5596 5595
5606 5605 5603 5599 5596 5593 5591 5590 5589 5589 5589 5589 5588 5588 5588 5588 5587 5584 5584 5583 5583 5585 5589 5589 5589 5590 5590 5595 5596 5596 5595 5595 5594 5594 5593 5593 5591 5589
5604 5603 5601 5598 5595 5591 5588 5587 5587 5585 5584 5584 5586 5587 5587 5587 5586 5585 5584 5583 5581 5582 5586 5586 5586 5586 5586 5588 5591 5592 5591 5591 5590 5589 5589 5589 5588 5586
5602 5601 5599 5596 5593 5591 5589 5588 5586 5582 5582 5582 5583 5584 5584 5584 5585 5585 5585 5585 5584 5584 5585 5584 5582 5582 5582 5582 5584 5587 5587 5588 5587 5587 5587 5586 5584 5583
5600 5598 5596 5594 5593 5592 5591 5589 5585 5583 5582 5581 5581 5582 5582 5583 5583 5583 5583 5583 5583 5583 5583 5582 5580 5580 5579 5578 5579 5581 5582 5583 5584 5584 5584 5583 5582 5581
5597 5596 5595 5594 5593 5592 5591 5589 5587 5585 5583 5581 5580 5581 5581 5580 5579 5579 5578 5579 5578 5579 5580 5580 5578 5576 5574 5575 5575 5576 5577 5578 5579 5580 5580 5580 5580 5580
5591 5593 5594 5594 5593 5593 5592 5590 5588 5585 5582 5580 5579 5578 5578 5577 5576 5576 5575 5574 5573 5573 5573 5574 5574 5573 5572 5571 5570 5571 5572 5573 5574 5575 5574 5575 5576 5577
5590 5592 5592 5591 5590 5589 5588 5587 5585 5583 5581 5579 5577 5575 5574 5573 5571 5571 5570 5568 5567 5567 5568 5568 5568 5567 5566 5568 5567 5567 5567 5568 5569 5569 5569 5569 5571 5573
5590 5591 5590 5589 5587 5586 5584 5583 5580 5579 5577 5575 5573 5571 5569 5568 5566 5566 5565 5564 5563 5563 5562 5562 5562 5560 5558 5559 5564 5564 5562 5562 5562 5562 5563 5563 5564 5567
5592 5591 5589 5587 5584 5583 5581 5579 5577 5575 5573 5570 5568 5566 5564 5563 5561 5561 5560 5559 5559 5558 5558 5558 5557 5557 5555 5555 5557 5559 5559 5558 5557 5556 5557 5558 5559 5560
5592 5590 5587 5585 5582 5580 5578 5575 5573 5570 5567 5564 5562 5560 5559 5558 5557 5556 5556 5554 5553 5553 5552 5553 5554 5554 5554 5552 5551 5552 5553 5553 5553 5552 5551 5550 5550 5551
5589 5587 5584 5581 5578 5576 5573 5569 5566 5562 5560 5557 5555 5554 5552 5552 5551 5551 5550 5549 5549 5548 5548 5548 5549 5548 5546 5544 5544 5544 5545 5546 5546 5546 5545 5545 5543 5543
5586 5583 5580 5577 5573 5570 5566 5563 5559 5555 5551 5549 5548 5547 5547 5546 5546 5546 5546 5545 5543 5543 5543 5543 5543 5542 5541 5539 5538 5538 5538 5538 5538 5538 5538 5539 5538 5539